Kirkville, IA

9:15 AM CDT on September 29, 2016 (GMT -0500)
Ottumwa Industrial

Weather History for KOTM - October, 2014

Change the Weather History Date:

Wednesday, October 29, 2014

  Actual Average Record
Temperature  
Mean Temperature 43 °F 48 °F  
Max Temperature 52 °F 58 °F 91 °F (1937)
Min Temperature 33 °F 37 °F 15 °F (1925)
Degree Days  
Heating Degree Days 22 17  
Month to date heating degree days 353 366  
Since 1 July heating degree days 487 487  
Cooling Degree Days 0 0  
Month to date cooling degree days 1 9  
Year to date cooling degree days 801 936  
Moisture  
Dew Point 32 °F    
Average Humidity 70    
Maximum Humidity 89    
Minimum Humidity 50    
Precipitation  
Precipitation 0.00 in 0.09 in 2.28 in (1896)
Month to date precipitation 3.51 2.65  
Year to date precipitation 38.96 33.14  
Sea Level Pressure  
Sea Level Pressure 30.16 in    
Wind  
Wind Speed 7 mph (West)    
Max Wind Speed 21 mph    
Max Gust Speed 27 mph    
Visibility 10 miles    
Events Rain    
T = Trace of Precipitation, MM = Missing Value Source: NWS Daily Summary

Daily Weather History Graph

Daily Weather History Graph

Search for Another Location

Airport or City:

Trip Planner

Search our weather history database for the weather conditions in past years. The results will help you decide how hot, cold, wet, or windy it might be!

Date:

Astronomy

Oct. 29, 2014 Rise Set
Actual Time 7:37 AM CDT 6:09 PM CDT
Civil Twilight 7:08 AM CDT 6:37 PM CDT
Nautical Twilight 6:36 AM CDT 7:09 PM CDT
Astronomical Twilight 6:04 AM CDT 7:41 PM CDT
Moon 12:57 PM CDT 11:19 PM CDT
Length of Visible Light 11h 28m
Length of Day
10h 31m
Waxing Crescent, 34% of the Moon is Illuminated
Oct 29
Waxing Crescent
Oct 30
First Quarter
Nov 6
Full
Nov 14
Last Quarter
Nov 22
New

Hourly Weather History & Observations

Time (CDT) Temp. Windchill Dew Point Humidity Pressure Visibility Wind Dir Wind Speed Gust Speed Precip Events Conditions
12:53 AM 39.0 °F 34.0 °F 32.0 °F 76% 30.10 in 10.0 mi WSW 6.9 mph - N/A   Clear
1:53 AM 37.0 °F 32.4 °F 32.0 °F 82% 30.10 in 10.0 mi West 5.8 mph - N/A   Clear
2:53 AM 37.9 °F 32.1 °F 32.0 °F 79% 30.12 in 10.0 mi West 8.1 mph - N/A   Mostly Cloudy
3:53 AM 39.9 °F 35.1 °F 33.1 °F 77% 30.12 in 10.0 mi West 6.9 mph - N/A   Overcast
4:53 AM 39.9 °F 35.1 °F 33.1 °F 77% 30.13 in 10.0 mi West 6.9 mph - N/A   Overcast
5:53 AM 39.0 °F 33.4 °F 32.0 °F 76% 30.14 in 10.0 mi West 8.1 mph - N/A   Scattered Clouds
6:53 AM 36.0 °F 30.3 °F 30.9 °F 82% 30.16 in 10.0 mi West 6.9 mph - N/A   Clear
7:53 AM 35.1 °F 29.3 °F 30.0 °F 82% 30.17 in 10.0 mi West 6.9 mph - N/A   Clear
8:53 AM 41.0 °F 35.8 °F 34.0 °F 76% 30.19 in 10.0 mi WNW 8.1 mph - N/A   Clear
9:53 AM 44.6 °F 38.1 °F 33.8 °F 66% 30.19 in 10.0 mi NW 13.8 mph - N/A   Clear
10:53 AM 46.9 °F - 32.0 °F 56% 30.21 in 10.0 mi NW 17.3 mph 26.5 mph 0.00 in Rain Light Rain
11:53 AM 46.9 °F - 33.1 °F 59% 30.22 in 10.0 mi NW 12.7 mph - 0.00 in Rain Light Rain
12:53 PM 48.9 °F - 33.1 °F 54% 30.21 in 10.0 mi WNW 11.5 mph - 0.00 in Rain Light Rain
1:53 PM 50.0 °F - 34.0 °F 54% 30.19 in 10.0 mi NNW 5.8 mph - 0.00 in Rain Light Rain
2:53 PM 51.1 °F - 34.0 °F 52% 30.17 in 10.0 mi WNW 8.1 mph - 0.00 in Rain Light Rain
3:53 PM 51.1 °F - 34.0 °F 52% 30.16 in 10.0 mi West 8.1 mph - 0.00 in Rain Light Rain
4:53 PM 50.0 °F - 34.0 °F 54% 30.16 in 10.0 mi WNW 5.8 mph - 0.00 in Rain Light Rain
5:53 PM 48.0 °F - 33.1 °F 56% 30.15 in 10.0 mi NW 4.6 mph - 0.00 in   Clear
6:53 PM 41.0 °F - 32.0 °F 70% 30.14 in 10.0 mi Calm Calm - N/A   Clear
7:53 PM 39.0 °F 34.8 °F 32.0 °F 76% 30.15 in 9.0 mi ESE 5.8 mph - 0.00 in   Unknown
8:53 PM 37.9 °F 35.5 °F 32.0 °F 79% 30.15 in 10.0 mi ESE 3.5 mph - 0.00 in   Clear
9:53 PM 35.1 °F 32.2 °F 30.0 °F 82% 30.16 in 10.0 mi SSE 3.5 mph - N/A   Clear
10:53 PM 35.1 °F 31.0 °F 30.9 °F 85% 30.15 in 10.0 mi SSE 4.6 mph - N/A   Clear
11:53 PM 34.0 °F 29.8 °F 30.9 °F 89% 30.14 in 10.0 mi SSE 4.6 mph - N/A   Clear